TimeEST,TemperatureF,Dew PointF,Humidity,Sea Level PressureIn,VisibilityMPH,Wind Direction,Wind SpeedMPH,Gust SpeedMPH,PrecipitationIn,Events,Conditions,WindDirDegrees,DateUTC
12:56 AM,-9999,-9999,N/A,30.28,-9999.0,North,-9999.0,-,N/A,,Unknown,0,2012-12-07 05:56:00
1:56 AM,-9999,-9999,N/A,30.27,-9999.0,North,-9999.0,-,N/A,,Unknown,0,2012-12-07 06:56:00
2:56 AM,-9999,-9999,N/A,30.26,-9999.0,North,-9999.0,-,N/A,,Unknown,0,2012-12-07 07:56:00
3:56 AM,21.9,18.0,85,30.30,10.0,Calm,Calm,-,N/A,,Clear,0,2012-12-07 08:56:00
4:56 AM,21.9,18.0,85,30.29,10.0,Calm,Calm,-,N/A,,Clear,0,2012-12-07 09:56:00
5:24 AM,21.2,19.4,93,30.23,10.0,Calm,Calm,-,N/A,,Mostly Cloudy,0,2012-12-07 10:24:00
5:56 AM,23.0,19.0,85,30.29,10.0,Calm,Calm,-,N/A,,Mostly Cloudy,0,2012-12-07 10:56:00
6:56 AM,24.1,19.9,84,30.29,10.0,Calm,Calm,-,N/A,,Overcast,0,2012-12-07 11:56:00
7:56 AM,26.1,21.0,81,30.27,10.0,Calm,Calm,-,N/A,,Overcast,0,2012-12-07 12:56:00
8:56 AM,28.9,25.0,85,30.27,10.0,Calm,Calm,-,N/A,,Overcast,0,2012-12-07 13:56:00
9:56 AM,34.0,28.0,79,30.28,10.0,West,3.5,-,N/A,,Overcast,280,2012-12-07 14:56:00
10:56 AM,37.0,28.9,73,30.23,10.0,SSW,4.6,-,N/A,,Overcast,200,2012-12-07 15:56:00
11:34 AM,39.2,30.2,70,30.15,10.0,SSW,5.8,-,N/A,,Partly Cloudy,200,2012-12-07 16:34:00
11:56 AM,39.9,30.0,68,30.15,10.0,SW,5.8,-,N/A,,Clear,220,2012-12-07 16:56:00
12:31 PM,41.0,30.2,65,30.14,10.0,SSW,6.9,-,N/A,,Overcast,200,2012-12-07 17:31:00
12:56 PM,42.1,30.9,65,30.13,10.0,SSW,6.9,-,N/A,,Overcast,200,2012-12-07 17:56:00
1:56 PM,42.1,30.9,65,30.11,10.0,South,5.8,-,N/A,,Overcast,180,2012-12-07 18:56:00
2:56 PM,43.0,32.0,65,30.10,10.0,South,3.5,-,N/A,,Overcast,180,2012-12-07 19:56:00
3:56 PM,42.1,34.0,73,30.14,10.0,South,4.6,-,0.00,Rain,Light Rain,170,2012-12-07 20:56:00
4:56 PM,42.1,35.1,76,30.12,10.0,Calm,Calm,-,0.00,,Overcast,0,2012-12-07 21:56:00
5:56 PM,41.0,37.0,86,30.12,10.0,South,3.5,-,0.00,Rain,Light Rain,170,2012-12-07 22:56:00
6:20 PM,39.2,37.4,93,30.07,10.0,Calm,Calm,-,0.00,,Overcast,0,2012-12-07 23:20:00
6:56 PM,39.9,37.0,89,30.12,9.0,Calm,Calm,-,0.00,Rain,Light Rain,0,2012-12-07 23:56:00
7:56 PM,39.9,37.9,93,30.12,8.0,South,3.5,-,0.02,Rain,Light Rain,170,2012-12-08 00:56:00
8:36 PM,39.2,37.4,93,30.06,9.0,Calm,Calm,-,0.00,Rain,Light Rain,0,2012-12-08 01:36:00
8:56 PM,39.9,37.9,93,30.11,8.0,Calm,Calm,-,0.00,,Overcast,0,2012-12-08 01:56:00
9:46 PM,39.2,39.2,100,30.05,8.0,Calm,Calm,-,0.01,,Overcast,0,2012-12-08 02:46:00
9:56 PM,39.9,39.0,97,30.09,7.0,Calm,Calm,-,0.01,,Overcast,0,2012-12-08 02:56:00
10:56 PM,39.9,39.0,97,30.09,7.0,Variable,3.5,-,0.00,,Overcast,0,2012-12-08 03:56:00
11:28 PM,41.0,39.2,93,30.03,6.0,Calm,Calm,-,0.00,,Overcast,0,2012-12-08 04:28:00
11:49 PM,41.0,39.2,93,30.02,6.0,Calm,Calm,-,0.00,,Overcast,0,2012-12-08 04:49:00
11:56 PM,41.0,39.9,96,30.06,6.0,North,-9999.0,-,0.00,,Overcast,0,2012-12-08 04:56:00